This demonstration page uses our WeatherBlox Daily Observations layout. Learn more.

Hourly Observations for December 18, 2017

Temp ( °F °C ) Dew Point ( °F °C ) Humidity (%) Winds ( mph kmh ) Pressure ( in mb ) Visibility ( mi km ) Precip ( " mm )
12:07 am 00:07 Mostly Cloudy 34 1.1 31 -0.6 89 89 Calm 30.15 1021 10 16.0934 0 0
12:35 am 00:35 Cloudy 36 2.2 32 0 86 86 Calm 30.09 1019 10 16.0934 0 0
12:53 am 00:53 Cloudy 38 3.3 34 1.1 86 86 Calm 30.11 1020 10 16.0934 0 0
1:53 am 01:53 Cloudy 41 5 38 3.3 89 89 Calm 30.1 1019 10 16.0934 0 0
2:43 am 02:43 Cloudy 41 5 38 3.3 89 89 Calm 30.09 1019 10 16.0934 0 0
2:53 am 02:53 Cloudy 41 5 38 3.3 89 89 Calm 30.11 1020 9 14.48406 0 0
3:53 am 03:53 Cloudy 42 5.6 39 3.9 89 89 S 3 6 30.09 1019 10 16.0934 0 0
4:14 am 04:14 Cloudy 42 5.6 39 3.9 89 89 Calm 30.09 1019 10 16.0934 0 0
4:37 am 04:37 Cloudy 42 5.6 40 4.4 92 92 SSW 5 7 30.09 1019 10 16.0934 0 0
4:53 am 04:53 Cloudy 42 5.6 40 4.4 92 92 VRB 3 6 30.1 1019 9 14.48406 0 0
5:53 am 05:53 Cloudy with Mist and Fog 42 5.6 41 5 96 96 SSW 3 6 30.09 1019 4 6.43736 0 0
6:10 am 06:10 Cloudy with Mist and Fog 42 5.6 41 5 96 96 SSW 3 6 30.09 1019 2 3.21868 0 0
6:32 am 06:32 Cloudy with Mist and Fog 42 5.6 42 5.6 100 100 Calm 30.09 1019 2.5 4.02335 0 0
6:43 am 06:43 Cloudy with Mist and Fog 42 5.6 42 5.6 100 100 S 5 7 30.09 1019 3 4.82802 0 0
6:53 am 06:53 Cloudy with Mist and Fog 42 5.6 42 5.6 100 100 SSW 3 6 30.1 1019 3 4.82802 0 0
7:19 am 07:19 Cloudy with Mist and Fog 42 5.6 42 5.6 100 100 VRB 3 6 30.09 1019 4 6.43736 0 0
7:53 am 07:53 Cloudy with Mist and Fog 43 6.1 42 5.6 97 97 SSW 5 7 30.1 1019 6 9.65604 0 0
8:53 am 08:53 Cloudy with Mist and Fog 44 6.7 42 5.6 93 93 SSW 6 9 30.1 1019 6 9.65604 0 0
9:53 am 09:53 Cloudy with Mist and Fog 45 7.2 43 6.1 93 93 SW 5 7 30.11 1020 5 8.0467 0 0
10:53 am 10:53 Cloudy with Mist and Fog 45 7.2 43 6.1 93 93 SW 8 13 30.12 1020 5 8.0467 0 0
11:53 am 11:53 Cloudy 47 8.3 44 6.7 90 90 SW 7 11 30.09 1019 10 16.0934 0 0
12:53 pm 12:53 Cloudy 48 8.9 43 6.1 83 83 WSW 9 15 30.06 1018 10 16.0934 0 0
1:53 pm 13:53 Cloudy 48 8.9 44 6.7 86 86 WSW 6 9 30.05 1018 10 16.0934 0 0
2:10 pm 14:10 Cloudy 48 8.9 44 6.7 86 86 WSW 5 7 30.06 1018 10 16.0934 0 0
2:42 pm 14:42 Cloudy 48 8.9 44 6.7 86 86 SW 8 13 30.06 1018 10 16.0934 0 0
2:53 pm 14:53 Cloudy 48 8.9 44 6.7 86 86 SW 7 11 30.04 1017 10 16.0934 0 0
3:36 pm 15:36 Cloudy 48 8.9 44 6.7 86 86 SW 7 11 30.06 1018 10 16.0934 0 0
3:53 pm 15:53 Cloudy 48 8.9 44 6.7 86 86 SW 6 9 30.03 1017 10 16.0934 0 0
4:53 pm 16:53 Cloudy 47 8.3 44 6.7 90 90 SW 7 11 30.03 1017 10 16.0934 0 0
5:07 pm 17:07 Cloudy 47 8.3 44 6.7 90 90 VRB 6 9 30.06 1018 7 11.26538 0 0
5:53 pm 17:53 Cloudy 47 8.3 44 6.7 90 90 WSW 6 9 30.05 1018 10 16.0934 0 0
6:53 pm 18:53 Cloudy with Light Rain 46 7.8 45 7.2 96 96 SW 6 9 30.07 1018 6 9.65604 0 0.0254
7:53 pm 19:53 Cloudy 46 7.8 44 6.7 93 93 SW 6 9 30.07 1018 10 16.0934 0.01 0.254
8:05 pm 20:05 Cloudy 46 7.8 44 6.7 93 93 SW 8 13 30.09 1019 10 16.0934 0 0
8:44 pm 20:44 Cloudy 46 7.8 44 6.7 93 93 SW 7 11 30.09 1019 10 16.0934 0 0
8:53 pm 20:53 Cloudy 46 7.8 44 6.7 93 93 SW 6 9 30.06 1018 10 16.0934 0 0
9:02 pm 21:02 Cloudy 47 8.3 44 6.7 90 90 SW 7 11 30.09 1019 10 16.0934 0 0
9:31 pm 21:31 Cloudy 47 8.3 43 6.1 86 86 SW 7 11 30.09 1019 10 16.0934 0 0
9:41 pm 21:41 Cloudy 47 8.3 43 6.1 86 86 SW 8 13 30.09 1019 10 16.0934 0 0
9:53 pm 21:53 Cloudy 47 8.3 43 6.1 86 86 SW 8 13 30.06 1018 10 16.0934 0 0
10:53 pm 22:53 Cloudy 47 8.3 43 6.1 86 86 SW 6 9 30.06 1018 10 16.0934 0 0
11:18 pm 23:18 Cloudy 47 8.3 43 6.1 86 86 SW 7 11 30.09 1019 10 16.0934 0 0
11:28 pm 23:28 Cloudy 47 8.3 43 6.1 86 86 SSW 8 13 30.09 1019 10 16.0934 0 0
11:53 pm 23:53 Cloudy 47 8.3 43 6.1 86 86 SW 8 13 30.06 1018 10 16.0934 0 0

Powered by AerisWeather